Minsk In-Min, Belarus

9:29 PM +03 on August 18, 2017 (GMT +0300)
Minsk In-Min

Weather History for UMMS - April, 2013

Change the Weather History Date:

Thursday, April 18, 2013

  Actual Average Record
Temperature  
Mean Temperature 54 °F -  
Max Temperature 68 °F 60 °F 68 °F (2013)
Min Temperature 39 °F 42 °F 24 °F (2017)
Degree Days  
Heating Degree Days 12    
Growing Degree Days 4 (Base 50)    
Moisture  
Dew Point 35 °F    
Average Humidity 47    
Maximum Humidity 75    
Minimum Humidity 24    
Precipitation  
Precipitation 0.00 in 0.07 in - ()
Sea Level Pressure  
Sea Level Pressure 30.16 in    
Wind  
Wind Speed 4 mph ()    
Max Wind Speed 11 mph    
Max Gust Speed 22 mph    
Visibility 8.2 miles    
Events      
Averages and records for this station are not official NWS values.
T = Trace of Precipitation, MM = Missing Value Source: Averaged Metar Reports

Daily Weather History Graph

Daily Weather History Graph

Search for Another Location

Airport or City:

Trip Planner

Search our weather history database for the weather conditions in past years. The results will help you decide how hot, cold, wet, or windy it might be!

Date:

Astronomy

Apr. 18, 2013 Rise Set
Actual Time 6:02 AM +03 8:17 PM +03
Civil Twilight 5:24 AM +03 8:55 PM +03
Nautical Twilight 4:35 AM +03 9:44 PM +03
Astronomical Twilight 3:38 AM +03 10:42 PM +03
Moon 11:42 AM +03 2:34 AM +03
Length of Visible Light 15h 31m
Length of Day
14h 14m
Waxing Crescent, 49% of the Moon is Illuminated
Apr 18
Waxing Crescent
Apr 18
First Quarter
Apr 25
Full
May 2
Last Quarter
May 10
New

Hourly Weather History & Observations

Time (+03) Temp. Windchill Dew Point Humidity Pressure Visibility Wind Dir Wind Speed Gust Speed Precip Events Conditions
12:00 AM 54 °F - 32 °F 31% 30.22 in 9 mi SSW 4.5 mph - -  
12:00 AM 44.6 °F 42.3 °F 32.0 °F 61% 30.21 in - South 4.5 mph - N/A   Clear
12:30 AM 44.6 °F - 32.0 °F 61% 30.21 in - Variable 2.2 mph - N/A   Clear
1:00 AM 41.0 °F - 32.0 °F 70% 30.21 in - Variable 2.2 mph - N/A   Clear
1:30 AM 41.0 °F - 32.0 °F 70% 30.21 in - Variable 2.2 mph - N/A   Clear
2:00 AM 41.0 °F - 32.0 °F 70% 30.21 in - Variable 2.2 mph - N/A   Clear
2:30 AM 42.8 °F - 32.0 °F 66% 30.21 in - Variable 2.2 mph - N/A   Clear
3:00 AM 47 °F - 32 °F 44% 30.23 in 9 mi Calm Calm - -  
3:00 AM 42.8 °F - 32.0 °F 66% 30.21 in - Variable 2.2 mph - N/A   Clear
3:30 AM 42.8 °F - 32.0 °F 66% 30.21 in - Variable 2.2 mph - N/A   Clear
4:00 AM 41.0 °F - 32.0 °F 70% 30.21 in - Calm Calm - N/A   Clear
4:30 AM 41.0 °F - 32.0 °F 70% 30.21 in - Variable 2.2 mph - N/A   Clear
5:00 AM 39.2 °F - 32.0 °F 75% 30.21 in - Calm Calm - N/A   Clear
5:30 AM 42.8 °F - 32.0 °F 66% 30.21 in - Variable 2.2 mph - N/A   Clear
6:00 AM 41 °F - 32 °F 61% 30.24 in 9 mi Calm Calm - -   Clear
6:00 AM 39.2 °F - 32.0 °F 75% 30.21 in - Calm Calm - N/A   Clear
6:30 AM 39.2 °F - 32.0 °F 75% 30.21 in - Variable 2.2 mph - N/A   Clear
7:00 AM 41.0 °F - 32.0 °F 70% 30.21 in - Variable 2.2 mph - N/A   Clear
7:30 AM 44.6 °F - 33.8 °F 66% 30.21 in - Calm Calm - N/A   Clear
8:00 AM 48.2 °F - 33.8 °F 58% 30.21 in - Variable 2.2 mph - N/A   Clear
8:30 AM 50.0 °F - 32.0 °F 50% 30.21 in - West 4.5 mph - N/A   Clear
9:00 AM 50 °F - 32 °F 38% 30.22 in 6 mi SSW 2.2 mph - -   Clear
9:00 AM 50.0 °F - 33.8 °F 54% 30.21 in - WSW 6.7 mph - N/A   Clear
9:30 AM 51.8 °F - 33.8 °F 50% 30.21 in - WSW 6.7 mph - N/A   Clear
10:00 AM 53.6 °F - 35.6 °F 51% 30.21 in - WSW 4.5 mph - N/A   Clear
10:30 AM 57.2 °F - 37.4 °F 48% 30.21 in - SSW 4.5 mph - N/A   Clear
11:00 AM 59.0 °F - 39.2 °F 48% 30.21 in - SSW 6.7 mph - N/A   Clear
11:30 AM 60.8 °F - 41.0 °F 48% 30.21 in - SSW 6.7 mph - N/A   Clear
12:00 PM 63 °F - 38 °F 29% 30.19 in 6 mi SW 6.7 mph - -   Clear
12:00 PM 62.6 °F - 41.0 °F 45% 30.18 in - SW 6.7 mph 13.4 mph N/A   Clear
12:30 PM 62.6 °F - 41.0 °F 45% 30.18 in - SSW 6.7 mph - N/A   Clear
1:00 PM 64.4 °F - 39.2 °F 40% 30.18 in - SW 8.9 mph 15.7 mph N/A   Clear
1:30 PM 66.2 °F - 37.4 °F 35% 30.18 in - SW 6.7 mph 15.7 mph N/A   Clear
2:00 PM 66.2 °F - 35.6 °F 32% 30.18 in - SW 8.9 mph 15.7 mph N/A   Clear
2:30 PM 68.0 °F - 37.4 °F 33% 30.15 in - WSW 8.9 mph 15.7 mph N/A   Clear
3:00 PM 68 °F - 40 °F 24% 30.14 in 9 mi SW 8.9 mph - -   Clear
3:00 PM 68.0 °F - 37.4 °F 33% 30.15 in - SW 6.7 mph 13.4 mph N/A   Clear
3:30 PM 68.0 °F - 37.4 °F 33% 30.15 in - SSW 8.9 mph 22.4 mph N/A   Clear
4:00 PM 66.2 °F - 37.4 °F 35% 30.12 in - South 11.2 mph 17.9 mph N/A   Clear
4:30 PM 68.0 °F - 35.6 °F 30% 30.12 in - SSW 8.9 mph 15.7 mph N/A   Clear
5:00 PM 66.2 °F - 35.6 °F 32% 30.12 in - South 8.9 mph - N/A   Clear
5:30 PM 66.2 °F - 35.6 °F 32% 30.12 in - SSW 8.9 mph - N/A   Clear
6:00 PM 67 °F - 39 °F 24% 30.09 in 9 mi SW 8.9 mph - -   Clear
6:00 PM 66.2 °F - 33.8 °F 30% 30.09 in - South 8.9 mph 15.7 mph N/A   Clear
6:30 PM 64.4 °F - 33.8 °F 32% 30.09 in - South 6.7 mph - N/A   Clear
7:00 PM 64.4 °F - 35.6 °F 34% 30.09 in - South 6.7 mph - N/A   Clear
7:30 PM 62.6 °F - 35.6 °F 37% 30.09 in - South 6.7 mph - N/A   Clear
8:00 PM 60.8 °F - 33.8 °F 36% 30.09 in - South 6.7 mph - N/A   Clear
8:30 PM 60.8 °F - 33.8 °F 36% 30.09 in - South 6.7 mph 13.4 mph N/A   Clear
9:00 PM 61 °F - 34 °F 24% 30.07 in 9 mi South 6.7 mph - -   Clear
9:00 PM 59.0 °F - 33.8 °F 39% 30.09 in - South 8.9 mph - N/A   Clear
9:30 PM 59.0 °F - 35.6 °F 42% 30.06 in - South 6.7 mph - N/A   Clear
10:00 PM 59.0 °F - 32.0 °F 36% 30.06 in - South 8.9 mph - N/A   Clear
10:30 PM 57.2 °F - 32.0 °F 38% 30.06 in - South 8.9 mph 15.7 mph N/A   Clear
11:00 PM 57.2 °F - 32.0 °F 38% 30.06 in - South 8.9 mph - N/A   Clear
11:30 PM 55.4 °F - 32.0 °F 41% 30.06 in - South 6.7 mph - N/A   Clear